Location: Waning Moon II Observatory
(30.3730°N, 89.7620°W)
Time: 08:06:29
(UTC-05:00)

Meteor 1-21 - Visible Passes

Search period start: 23 July 2016 00:00
Search period end: 02 August 2016 00:00
Orbit: 843 x 889 km, 81.2° (Epoch: 22 July)

Date Brightness Start Highest point End Pass type
(mag) Time Alt. Az. Time Alt. Az. Time Alt. Az.
23 Jul 5.9 01:55:17 10° NNE 01:58:25 28° NE 01:58:25 28° NE visible
23 Jul 6.2 03:39:17 10° NW 03:40:43 15° NW 03:40:43 15° NW visible
24 Jul 6.0 01:47:57 10° NNE 01:50:49 26° NE 01:50:49 26° NE visible
24 Jul 6.3 03:31:58 10° NW 03:33:08 14° NW 03:33:08 14° NW visible
25 Jul 6.1 01:40:35 10° N 01:43:15 25° NNE 01:43:15 25° NNE visible
25 Jul 6.4 03:24:39 10° NW 03:25:34 13° NW 03:25:34 13° NW visible
26 Jul 6.2 01:33:15 10° N 01:35:43 24° NNE 01:35:43 24° NNE visible
26 Jul 6.5 03:17:21 10° NW 03:18:02 12° NW 03:18:02 12° NW visible
27 Jul 6.3 01:25:54 10° N 01:28:11 23° NNE 01:28:11 23° NNE visible
27 Jul 6.6 03:10:02 10° NW 03:10:30 12° NW 03:10:30 12° NW visible
28 Jul 6.3 01:18:33 10° N 01:20:41 22° NNE 01:20:41 22° NNE visible
28 Jul 6.6 03:02:43 10° NW 03:03:00 11° NW 03:03:00 11° NW visible
29 Jul 6.4 01:11:12 10° N 01:13:12 21° NNE 01:13:12 21° NNE visible
29 Jul 6.7 02:55:24 10° NW 02:55:31 10° NW 02:55:31 10° NW visible
30 Jul 6.4 01:03:52 10° N 01:05:44 20° NNE 01:05:44 20° NNE visible
31 Jul 6.5 00:56:31 10° N 00:58:17 19° NNE 00:58:17 19° NNE visible
01 Aug 6.5 00:49:11 10° N 00:50:51 19° NNE 00:50:51 19° NNE visible
